Вернуться в каталог

SL-14 DEB

АктивенPO
NORAD 47091·DEBRIS·🇷🇺 Russia

Запущен Aug 15, 1991 с Plesetsk Cosmodrome

Loading…

Ближайшие Пролёты (ближайшие 24 часа)

TLE

СвежийSource: Space-Track

Эпоха: Sep 14, 2026, 11:22 UTC

1 47091U 91056DR  26257.47412382  .00000391  00000-0  93279-3 0  9991
2 47091  82.5946  80.3134 0008902 115.6955 244.5089 13.20564276282423

Отслеживайте SL-14 DEB в реальном времени с AllMySat

Download on the App Store